Home   Weather   Almere   Past weeks
Flag for Netherlands

Past Weather in Almere, Netherlands — Yesterday and Last 2 Weeks

Now
48 °F

Sunny.


Feels Like: 47 °F
Forecast: 64 / 48 °F
Wind: 3 mph from Southeast

Location: Amsterdam Schiphol Airport

Current Time: May 23, 2019 at 6:59:44 am

Latest Report: May 23, 2019 at 6:25 am


Visibility: 10 mi

Pressure: 30.07 "Hg

Humidity: 82%

Dew Point: 43 °F

Location of AlmereLocation

Past Weather in Almere — Graph

°F

Almere Temperature Yesterday

Maximum temperature yesterday: 64 °F (at 5:25 pm)
Minimum temperature yesterday: 50 °F (at 5:55 am)
Average temperature yesterday: 56 °F

High & Low Weather Summary for the Past Weeks

 TemperatureHumidityPressure
High68 °F (May 18, 1:55 pm)100% (May 9, 11:25 pm)30.74 "Hg (May 9, 11:25 pm)
Low39 °F (May 12, 4:25 am)34% (May 15, 2:55 pm)29.33 "Hg (May 8, 4:55 pm)
Average53 °F74%30.01 "Hg
* Reported May 8 5:25 am — May 23 5:55 am, Almere. Weather by CustomWeather, © 2019

Note: Actual official high and low records may vary slightly from our data, if they occured in-between our weather recording intervals... More about our weather records

Advertising

Almere Weather History for the Previous 24 Hours

Scroll right to see more
 ConditionsComfort  
Time TempWeatherWind HumidityBarometerVisibility
5:55 am
Thu, May 23
48 °FSunny.7 mph82%30.07 "Hg10 mi
5:25 am48 °FClear.6 mph82%30.07 "Hg10 mi
4:55 am48 °FClear.6 mph82%30.07 "Hg10 mi
4:25 am48 °FClear.5 mph82%30.07 "Hg10 mi
3:55 am48 °FClear.6 mph82%30.07 "Hg10 mi
3:25 am48 °FClear.6 mph82%30.07 "Hg10 mi
2:55 am48 °FClear.3 mph82%30.09 "Hg10 mi
2:25 am46 °FClear.2 mph87%30.09 "Hg10 mi
1:55 am46 °FClear.5 mph87%30.09 "Hg10 mi
1:25 am48 °FClear.2 mph87%30.09 "Hg10 mi
12:55 am50 °FClear.3 mph82%30.09 "Hg10 mi
12:25 am48 °FClear.3 mph87%30.09 "Hg10 mi
11:55 pm
Wed, May 22
52 °FClear.2 mph77%30.09 "Hg10 mi
11:25 pm54 °FClear.3 mph67%30.09 "Hg10 mi
11:00 pm54 °FClear.3 mph67%30.09 "Hg10 mi
10:25 pm55 °FClear.1 mph63%30.09 "Hg10 mi
9:55 pm55 °FClear.2 mph59%30.09 "Hg10 mi
9:25 pm59 °FSunny.No wind55%30.09 "Hg10 mi
8:55 pm59 °FSunny.2 mph59%30.09 "Hg10 mi
8:25 pm57 °FSunny.3 mph59%30.09 "Hg10 mi
7:55 pm57 °FSunny.5 mph59%30.09 "Hg10 mi
7:25 pm59 °FSunny.5 mph55%30.09 "Hg10 mi
6:55 pm61 °FSunny.8 mph55%30.12 "Hg10 mi
6:25 pm61 °FSunny.9 mph52%30.12 "Hg10 mi
5:55 pm61 °FSunny.10 mph52%30.12 "Hg10 mi
5:25 pm64 °FSunny.8 mph46%30.09 "Hg10 mi
4:55 pm63 °FSunny.12 mph39%30.09 "Hg10 mi
4:25 pm63 °FSunny.12 mph39%30.09 "Hg10 mi
3:55 pm61 °FPassing clouds.9 mph68%30.09 "HgN/A
3:25 pm61 °FScattered clouds.9 mph68%30.09 "HgN/A
2:55 pm61 °FScattered clouds.12 mph68%30.09 "HgN/A
2:25 pm61 °FPassing clouds.14 mph68%30.09 "HgN/A
1:55 pm63 °FPassing clouds.18 mph59%30.09 "HgN/A
1:25 pm63 °FPassing clouds.12 mph56%30.09 "HgN/A
12:55 pm61 °FPassing clouds.8 mph68%30.09 "HgN/A
12:25 pm61 °FScattered clouds.7 mph63%30.09 "HgN/A
11:55 am59 °FScattered clouds.6 mph68%30.09 "HgN/A
11:25 am57 °FScattered clouds.6 mph72%30.09 "HgN/A
10:55 am57 °FScattered clouds.6 mph72%30.09 "HgN/A
10:25 am57 °FPartly sunny.6 mph72%30.09 "HgN/A
9:55 am55 °FScattered clouds.6 mph77%30.09 "HgN/A
9:25 am54 °FScattered clouds.7 mph77%30.09 "HgN/A
8:55 am54 °FScattered clouds.7 mph77%30.09 "HgN/A
8:25 am54 °FPassing clouds.6 mph77%30.09 "HgN/A
7:55 am52 °FPartly sunny.8 mph82%30.09 "HgN/A
7:25 am52 °FPartly sunny.8 mph82%30.09 "HgN/A
6:55 am50 °FPartly sunny.8 mph82%30.09 "HgN/A
6:25 am50 °FScattered clouds.9 mph82%30.07 "HgN/A
Weather by CustomWeather, © 2019

See weather overview